When you browse on this site, cookies collect data to enhance your experience and personalize the content and advertising you see.
Visit our Privacy Policy to learn more. By continuing to use the site, you agree to this use of cookies and data.
  • En España
  • Lista de países
  • Para 7 días
  • Temperatura del agua
  • El tiempo en el mapa
  • Informadores
  • user-avatar
    Iniciar sesión

    Tiempo cada hora Buenos Aires

    Hoy, 19 Octubre, Sábado

    Tiempo Temperatura Precipitaciones Viento Presión Humedad
    00:00 +17°C° 0 mm 2 mps 765 mmHg 67%
    01:00 +16°C° 0 mm 2 mps 765 mmHg 68%
    02:00 +16°C° 0 mm 2 mps 765 mmHg 69%
    03:00 +15°C° 0 mm 2 mps 765 mmHg 69%
    04:00 +15°C° 0 mm 1 mps 766 mmHg 69%
    05:00 +15°C° 0 mm 1 mps 766 mmHg 69%
    06:00 +16°C° 0 mm 1 mps 766 mmHg 61%
    07:00 +18°C° 0 mm 2 mps 767 mmHg 53%
    08:00 +20°C° 0 mm 2 mps 767 mmHg 45%
    09:00 +21°C° 0 mm 2 mps 767 mmHg 41%
    10:00 +24°C° 0 mm 2 mps 767 mmHg 37%
    11:00 +25°C° 0 mm 2 mps 767 mmHg 33%
    12:00 +25°C° 0 mm 2 mps 766 mmHg 33%
    13:00 +25°C° 0 mm 3 mps 766 mmHg 33%
    14:00 +26°C° 0 mm 3 mps 766 mmHg 33%
    15:00 +25°C° 0 mm 3 mps 765 mmHg 37%
    16:00 +24°C° 0 mm 3 mps 765 mmHg 40%
    17:00 +22°C° 0 mm 4 mps 765 mmHg 43%
    18:00 +21°C° 0 mm 4 mps 765 mmHg 49%
    19:00 +20°C° 0 mm 4 mps 765 mmHg 54%
    20:00 +18°C° 0 mm 4 mps 765 mmHg 60%
    21:00 +17°C° 0 mm 5 mps 765 mmHg 61%
    22:00 +16°C° 0 mm 5 mps 765 mmHg 63%
    23:00 +16°C° 0 mm 6 mps 765 mmHg 64%

    Mañana, 20 Octubre, Domingo

    Tiempo Temperatura Precipitaciones Viento Presión Humedad
    00:00 +15°C° 0 mm 5 mps 764 mmHg 64%
    01:00 +15°C° 0 mm 5 mps 764 mmHg 64%
    02:00 +14°C° 0 mm 5 mps 764 mmHg 64%
    03:00 +14°C° 0 mm 5 mps 764 mmHg 64%
    04:00 +14°C° 0 mm 4 mps 764 mmHg 64%
    05:00 +13°C° 0 mm 4 mps 764 mmHg 64%
    06:00 +14°C° 0 mm 4 mps 764 mmHg 59%
    07:00 +14°C° 0 mm 4 mps 765 mmHg 54%
    08:00 +15°C° 0 mm 4 mps 765 mmHg 49%
    09:00 +17°C° 0 mm 3 mps 765 mmHg 45%
    10:00 +18°C° 0 mm 3 mps 765 mmHg 40%
    11:00 +19°C° 0 mm 2 mps 765 mmHg 35%
    12:00 +20°C° 0 mm 2 mps 764 mmHg 34%
    13:00 +21°C° 0 mm 2 mps 764 mmHg 32%
    14:00 +21°C° 0 mm 3 mps 763 mmHg 30%
    15:00 +20°C° 0 mm 3 mps 763 mmHg 34%
    16:00 +19°C° 0 mm 3 mps 763 mmHg 38%
    17:00 +18°C° 0 mm 4 mps 763 mmHg 42%
    18:00 +18°C° 0 mm 4 mps 763 mmHg 42%
    19:00 +17°C° 0 mm 4 mps 763 mmHg 42%
    20:00 +17°C° 0 mm 4 mps 762 mmHg 42%
    21:00 +16°C° 0.2 mm 3 mps 763 mmHg 45%
    22:00 +16°C° 0.2 mm 3 mps 763 mmHg 49%
    23:00 +14°C° 0.2 mm 3 mps 763 mmHg 52%

    Pasado mañana, 21 Octubre, Lunes

    Tiempo Temperatura Precipitaciones Viento Presión Humedad
    00:00 +14°C° 0.4 mm 3 mps 763 mmHg 57%
    01:00 +13°C° 0.4 mm 3 mps 762 mmHg 62%
    02:00 +13°C° 0.4 mm 3 mps 762 mmHg 67%
    03:00 +13°C° 0.7 mm 3 mps 762 mmHg 69%
    04:00 +13°C° 0.7 mm 3 mps 762 mmHg 71%
    05:00 +13°C° 0.7 mm 4 mps 762 mmHg 73%
    06:00 +13°C° 0.6 mm 3 mps 762 mmHg 75%
    07:00 +13°C° 0.6 mm 3 mps 762 mmHg 77%
    08:00 +14°C° 0.6 mm 2 mps 762 mmHg 79%
    09:00 +15°C° 0.2 mm 2 mps 762 mmHg 72%
    10:00 +17°C° 0.2 mm 2 mps 762 mmHg 65%
    11:00 +18°C° 0.2 mm 2 mps 762 mmHg 57%
    12:00 +19°C° 0 mm 2 mps 762 mmHg 53%
    13:00 +19°C° 0 mm 2 mps 762 mmHg 50%
    14:00 +20°C° 0 mm 2 mps 762 mmHg 46%
    15:00 +20°C° 0 mm 2 mps 761 mmHg 48%
    16:00 +20°C° 0 mm 2 mps 761 mmHg 50%
    17:00 +20°C° 0 mm 1 mps 761 mmHg 52%
    18:00 +19°C° 0 mm 1 mps 761 mmHg 56%
    19:00 +18°C° 0 mm 2 mps 762 mmHg 60%
    20:00 +17°C° 0 mm 2 mps 762 mmHg 64%
    21:00 +16°C° 0 mm 2 mps 762 mmHg 66%
    22:00 +16°C° 0 mm 2 mps 762 mmHg 67%
    23:00 +16°C° 0 mm 3 mps 762 mmHg 68%

    22 Octubre, Martes

    Tiempo Temperatura Precipitaciones Viento Presión Humedad
    00:00 +14°C° 0 mm 3 mps 762 mmHg 70%
    01:00 +14°C° 0 mm 3 mps 761 mmHg 71%
    02:00 +13°C° 0 mm 3 mps 761 mmHg 72%
    03:00 +13°C° 0 mm 3 mps 761 mmHg 74%
    04:00 +13°C° 0 mm 3 mps 761 mmHg 75%
    05:00 +12°C° 0 mm 3 mps 762 mmHg 77%
    06:00 +14°C° 0 mm 3 mps 762 mmHg 72%
    07:00 +16°C° 0 mm 3 mps 762 mmHg 68%
    08:00 +17°C° 0 mm 3 mps 762 mmHg 63%
    09:00 +19°C° 0 mm 3 mps 762 mmHg 51%
    10:00 +21°C° 0 mm 3 mps 762 mmHg 40%
    11:00 +24°C° 0 mm 3 mps 761 mmHg 28%
    12:00 +24°C° 0 mm 3 mps 761 mmHg 28%
    13:00 +25°C° 0 mm 3 mps 761 mmHg 27%
    14:00 +25°C° 0 mm 3 mps 760 mmHg 27%
    15:00 +24°C° 0 mm 3 mps 760 mmHg 28%
    16:00 +24°C° 0 mm 3 mps 760 mmHg 30%
    17:00 +22°C° 0 mm 3 mps 759 mmHg 32%
    18:00 +21°C° 0 mm 3 mps 759 mmHg 39%
    19:00 +20°C° 0 mm 2 mps 759 mmHg 45%
    20:00 +19°C° 0 mm 2 mps 760 mmHg 51%
    21:00 +18°C° 0 mm 2 mps 760 mmHg 57%
    22:00 +18°C° 0 mm 2 mps 760 mmHg 62%
    23:00 +17°C° 0 mm 2 mps 759 mmHg 68%

    23 Octubre, Miércoles

    Tiempo Temperatura Precipitaciones Viento Presión Humedad
    00:00 +17°C° 0 mm 2 mps 759 mmHg 69%
    01:00 +16°C° 0 mm 2 mps 759 mmHg 71%
    02:00 +16°C° 0 mm 3 mps 759 mmHg 72%
    03:00 +16°C° 0 mm 3 mps 759 mmHg 73%
    04:00 +14°C° 0 mm 3 mps 759 mmHg 73%
    05:00 +14°C° 0 mm 3 mps 759 mmHg 73%
    06:00 +17°C° 0 mm 4 mps 759 mmHg 68%
    07:00 +18°C° 0 mm 4 mps 759 mmHg 63%
    08:00 +19°C° 0 mm 4 mps 760 mmHg 57%
    09:00 +21°C° 0 mm 5 mps 759 mmHg 53%
    10:00 +22°C° 0 mm 5 mps 759 mmHg 48%
    11:00 +25°C° 0 mm 5 mps 759 mmHg 43%
    12:00 +25°C° 0.1 mm 5 mps 759 mmHg 44%
    13:00 +24°C° 0.1 mm 6 mps 759 mmHg 44%
    14:00 +24°C° 0.1 mm 6 mps 758 mmHg 45%
    15:00 +25°C° 0 mm 5 mps 758 mmHg 44%
    16:00 +25°C° 0 mm 5 mps 758 mmHg 42%
    17:00 +23°C° 0 mm 4 mps 758 mmHg 41%
    18:00 +22°C° 0 mm 4 mps 758 mmHg 45%
    19:00 +21°C° 0 mm 4 mps 759 mmHg 48%
    20:00 +20°C° 0 mm 3 mps 759 mmHg 51%
    21:00 +19°C° 0 mm 4 mps 760 mmHg 52%
    22:00 +18°C° 0 mm 4 mps 760 mmHg 52%
    23:00 +17°C° 0 mm 4 mps 761 mmHg 53%

    24 Octubre, Jueves

    Tiempo Temperatura Precipitaciones Viento Presión Humedad
    00:00 +17°C° 0 mm 4 mps 761 mmHg 53%
    01:00 +16°C° 0 mm 3 mps 761 mmHg 54%
    02:00 +15°C° 0 mm 2 mps 760 mmHg 54%
    03:00 +15°C° 0 mm 2 mps 761 mmHg 55%
    04:00 +15°C° 0 mm 2 mps 761 mmHg 56%
    05:00 +14°C° 0 mm 1 mps 761 mmHg 57%
    06:00 +16°C° 0 mm 1 mps 761 mmHg 52%
    07:00 +18°C° 0 mm 1 mps 761 mmHg 46%
    08:00 +18°C° 0 mm 2 mps 762 mmHg 41%
    09:00 +20°C° 0 mm 2 mps 762 mmHg 37%
    10:00 +23°C° 0 mm 2 mps 761 mmHg 33%
    11:00 +24°C° 0 mm 2 mps 761 mmHg 29%
    12:00 +25°C° 0 mm 2 mps 761 mmHg 30%
    13:00 +25°C° 0 mm 2 mps 760 mmHg 30%
    14:00 +26°C° 0 mm 3 mps 760 mmHg 31%
    15:00 +25°C° 0 mm 3 mps 760 mmHg 33%
    16:00 +24°C° 0 mm 3 mps 760 mmHg 36%
    17:00 +24°C° 0 mm 3 mps 759 mmHg 39%
    18:00 +21°C° 0 mm 3 mps 760 mmHg 43%
    19:00 +20°C° 0 mm 3 mps 760 mmHg 48%
    20:00 +19°C° 0 mm 4 mps 760 mmHg 52%
    21:00 +18°C° 0 mm 4 mps 760 mmHg 57%
    22:00 +18°C° 0 mm 4 mps 760 mmHg 61%
    23:00 +16°C° 0 mm 5 mps 760 mmHg 66%
    Mostrar más